Visalia, CA

1:12 PM PST on December 11, 2019 (GMT -0800)
Visalia Municipal

Weather History for KVIS - October, 2019

Change the Weather History Date:

Monday, October 21, 2019

  Actual Average Record
Temperature  
Mean Temperature 63 °F -  
Max Temperature 79 °F 77 °F 95 °F (1937)
Min Temperature 48 °F 50 °F 35 °F (1996)
Degree Days  
Heating Degree Days 2    
Growing Degree Days 13 (Base 50)    
Moisture  
Dew Point 47 °F    
Average Humidity 63    
Maximum Humidity 93    
Minimum Humidity 32    
Precipitation  
Precipitation 0.00 in - - ()
Sea Level Pressure  
Sea Level Pressure 30.17 in    
Wind  
Wind Speed 3 mph (SE)    
Max Wind Speed 7 mph    
Max Gust Speed -    
Visibility 10 miles    
Events      
Averages and records for this station are not official NWS values.
T = Trace of Precipitation, MM = Missing Value Source: NWS Daily Summary

Daily Weather History Graph

Daily Weather History Graph

Search for Another Location

Airport or City:

Astronomy

Oct. 21, 2019 Rise Set
Actual Time 7:09 AM PDT 6:13 PM PDT
Civil Twilight 6:43 AM PDT 6:39 PM PDT
Nautical Twilight 6:13 AM PDT 7:09 PM PDT
Astronomical Twilight 5:43 AM PDT 7:39 PM PDT
Moon No Moon Rise 2:26 PM PDT (10/21)
Length of Visible Light 11h 56m
Length of Day
11h 03m
Waning Gibbous, 47% of the Moon is Illuminated
Oct 21
Waning Gibbous
Oct 27
New
Nov 4
First Quarter
Nov 12
Full
Nov 19
Last Quarter

Hourly Weather History & Observations

Time (PDT) Temp. Dew Point Humidity Pressure Visibility Wind Dir Wind Speed Gust Speed Precip Events Conditions
12:56 AM 53.1 °F 48.9 °F 86% 30.15 in 9.0 mi Calm Calm - N/A   Clear
1:56 AM 51.1 °F 46.9 °F 86% 30.15 in 10.0 mi East 3.5 mph - N/A   Clear
2:56 AM 50.0 °F 46.9 °F 89% 30.15 in 9.0 mi ESE 4.6 mph - N/A   Clear
3:56 AM 52.0 °F 48.0 °F 86% 30.14 in 10.0 mi East 4.6 mph - N/A   Clear
4:56 AM 52.0 °F 48.0 °F 86% 30.14 in 10.0 mi ESE 5.8 mph - N/A   Clear
5:56 AM 50.0 °F 48.0 °F 93% 30.15 in 10.0 mi Calm Calm - N/A   Clear
6:56 AM 48.0 °F 46.0 °F 93% 30.17 in 9.0 mi SE 5.8 mph - N/A   Clear
7:56 AM 50.0 °F 46.9 °F 89% 30.18 in 9.0 mi ESE 4.6 mph - N/A   Clear
8:56 AM 57.0 °F 48.9 °F 74% 30.20 in 10.0 mi SSE 5.8 mph - N/A   Clear
9:56 AM 63.0 °F 48.9 °F 60% 30.21 in 10.0 mi SSE 4.6 mph - N/A   Clear
10:56 AM 66.9 °F 48.9 °F 52% 30.21 in 10.0 mi SSW 4.6 mph - N/A   Clear
11:56 AM 70.0 °F 50.0 °F 49% 30.20 in 10.0 mi SSE 4.6 mph - N/A   Clear
12:56 PM 73.0 °F 46.0 °F 38% 30.17 in 10.0 mi SSE 6.9 mph - N/A   Clear
1:56 PM 75.9 °F 46.9 °F 36% 30.14 in 10.0 mi South 3.5 mph - N/A   Clear
2:56 PM 77.0 °F 46.9 °F 34% 30.13 in 10.0 mi Variable 3.5 mph - N/A   Clear
3:56 PM 78.1 °F 46.0 °F 32% 30.13 in 10.0 mi Variable 3.5 mph - N/A   Clear
4:56 PM 78.1 °F 46.9 °F 33% 30.12 in 10.0 mi Calm Calm - N/A   Clear
5:56 PM 73.9 °F 46.0 °F 37% 30.13 in 10.0 mi NW 6.9 mph - N/A   Clear
6:56 PM 70.0 °F 46.0 °F 42% 30.15 in 10.0 mi Calm Calm - N/A   Clear
7:56 PM 66.0 °F 46.0 °F 48% 30.17 in 10.0 mi Calm Calm - N/A   Clear
8:56 PM 61.0 °F 46.9 °F 60% 30.19 in 10.0 mi Calm Calm - N/A   Clear
9:56 PM 57.9 °F 48.0 °F 70% 30.20 in 10.0 mi ENE 3.5 mph - N/A   Clear
10:56 PM 57.9 °F 48.9 °F 72% 30.21 in 10.0 mi ESE 3.5 mph - N/A   Clear
11:56 PM 57.0 °F 48.9 °F 74% 30.21 in 10.0 mi ESE 3.5 mph - N/A   Clear